Find Starlink 30812

NORAD ID: 58168 Int'l Des: 2023-166 Owner: SPXS Country: US Constellation: starlink operational
LEOCIRCULAR

リアルタイム位置

3D地球を読み込み中...

Starlink 30812について

説明を読み込み中...

次回通過

Passes for default location (London). Set your location on the main map for personalized predictions.

高度履歴

Loading altitude history...

軌道要素

1 58168U 23166U 26124.80076968 .00003230 00000-0 12124-3 0 9996
2 58168 53.1614 318.7389 0001154 97.9314 262.1818 15.30171881141620
Epoch: May 4, 2026 • Age: 15 hours

現在のステータス

高度 480.3 km
速度 7.63 km/s
衛星直下点 -17.76°S, 133.24°E
打ち上げ日 Oct 29, 2023
運用期間 2.5 years
タイプ internet

技術仕様

分類 Payload
質量 730.00 kg
乾燥質量 700.00 kg
総質量 730.00 kg
長さ 0.30 m
直径 4.10 m
スパン 29.00 m
形状 Box + pan
製造者 SPXS
バスタイプ Starlink V2M
フェーズステータス In Orbit
所有者/国 SPXS/US

Most Searched